Regional Weather Roundup
Issued by NWS Huntsville, AL

Home | Current Version | Previous Version | Text Only | Print | Product List | Glossary On
Versions: 1 2 3 4 5 6 7 8 9 10 11 12 13 14 15 16 17 18 19 20 21 22 23 24 25 26 27 28 29 30 31 32 33 34 35 36 37 38 39 40 41 42 43 44 45 46 47 48 49 50
756
ASUS44 KHUN 302010
RWRHUN

WEATHER ROUNDUP FOR THE TENNESSEE VALLEY
NATIONAL WEATHER SERVICE HUNTSVILLE AL
300 PM CDT MON MAY 30 2016

ALZ001>004-302100-
NORTHWEST ALABAMA

CITY           SKY/WX    TMP DP  RH WIND       PRES   REMARKS
COURTLAND HCN    N/A     88 N/A N/A CALM        N/A
RUSSELLVILLE     N/A     88 N/A N/A MISG        N/A
SHOALS AIRPORT MOSUNNY   91  59  33 VRB5      30.00F HX  90
SHOALS TVA RES   N/A     88 N/A N/A MISG        N/A
$$

ALZ005>007-016-302100-
NORTH CENTRAL ALABAMA

CITY           SKY/WX    TMP DP  RH WIND       PRES   REMARKS
CULLMAN AG STN   N/A     88 N/A N/A NW7         N/A
DECATUR AP     SUNNY     91  60  35 N8        29.99F HX  90
HUNTSVILLE AP  MOSUNNY   92  58  31 NW13      29.98F HX  91
HUN NWS/UAH      N/A     89  54  30 NW7         N/A
MERIDIANVILLE  MOSUNNY   90  48  24 NW13G18   29.99F
REDSTONE ARSN  MOSUNNY   91  61  35 NE10      29.97F HX  91
VINEMONT AP    FAIR      90  61  37 W8        30.02F HX  90
$$

ALZ008>010-302100-
NORTHEAST ALABAMA

CITY           SKY/WX    TMP DP  RH WIND       PRES   REMARKS
FORT PAYNE     PTSUNNY   88  54  31 N10       29.97F
SCOTTSBORO AP  SUNNY     91  59  33 NW8       29.97F HX  90
SCOTTSBORO HCN   N/A     90 N/A N/A MISG        N/A
VALLEY HEAD      N/A     88 N/A N/A MISG        N/A
$$

TNZ076-096-097-302100-
SOUTHEASTERN MIDDLE TENNESSEE

CITY           SKY/WX    TMP DP  RH WIND       PRES   REMARKS
TULLAHOMA      SUNNY     84  57  39 N8        30.03F
WINCHESTER     MOSUNNY   88  61  40 NW13      30.00F
$$

...SURROUNDING SITES...

CITY           SKY/WX    TMP DP  RH WIND       PRES   REMARKS
ATLANTA        MOSUNNY   92  56  29 NW12      29.96F HX  90
ANNISTON       MOSUNNY   90  58  33 NW6       29.97F
BIRMINGHAM     PTSUNNY   89  61  38 NW8       30.00F
CHATTANOOGA    LGT RAIN  85  64  49 SE5       29.96F
DALTON         SUNNY     90  59  35 NW6       29.95F
GADSDEN        MOSUNNY   91  62  37 N10       29.97F HX  91
GOLDEN TRNGL   PTSUNNY   93  63  36 NE7       29.98F HX  94
HALEYVILLE     FAIR      88  63  43 CALM      30.02F
JACKSON TN     MOSUNNY   89  58  34 E10       30.01F
MEMPHIS        MOSUNNY   89  62  40 VRB6      30.01F
NASHVILLE      MOSUNNY   86  54  33 N9        30.02F
OXFORD MS      FAIR      86  59  39 NW6       30.02F
ROME           MOSUNNY   91  59  33 W9        29.94F HX  90
SAVANNAH       MOSUNNY   88  59  37 N12       30.00F
TUPELO         PTSUNNY   88  59  37 N6        29.98F
TUSCALOOSA     SUNNY     92  61  35 W7        29.96F HX  92
$$

...GULF COAST WEATHER...

CITY           SKY/WX    TMP DP  RH WIND       PRES   REMARKS
GULFPORT       MOSUNNY   89  70  53 S9        29.96F HX  94
PASCAGOULA     PTSUNNY   90  71  53 S6        29.97F HX  96
MOBILE         CLOUDY    87  71  58 S10       29.97F HX  93
GULF SHORES    CLOUDY    84  67  57 CALM      29.98F
DESTIN         MOSUNNY   84  71  65 VRB7      29.96S
PANAMA CITY    SUNNY     87  73  63 SW14      29.94F HX  95
APPALACHICOLA  MOSUNNY   87  74  64 SW13      29.95F HX  95
$$





USA.gov is the U.S. government's official web portal to all federal, state and local government web resources and services.